Info for pilots

Image

Airfield Info:

EBUL
N51 08.7 - E003 28.6
ELEV 95' / 29m
RWY 07 / 25
799m * 45m (CIV) - 2980m (MIL)
Ursel Radio 135.125
Tel Aero Club Brugge : +32(0)9 374 25 75
Tel Vliegclub Ursel : +32(0)9 374 12 90

Operational Hours
FRI: 14h00LT - SS+30 MIN
SAT, SUN and HOL: TKOF and LDG: 10h00LT - SS+30 MIN
After 20h00LT to SS+30 MIN: only LDG allowed (PN)

Local Traffic Regulations
The use of the AD is subject to PPR from the OPR;
AD given in concession to the CIV club outside MIL ACT;
Solo training flights can only be performed after two reconnaissance flights with instructor. The solo training flight must be performed within six weeks after the first reconnaissance flight;
Jet aircraft operations not allowed.
Obstacles: trees between 10M AGL and 22M AGL, caution when crosswind:
North of the RWY, 75M from CL, along the whole length of the RWY;
South of the RWY, 75M from CL, and at THR RWY 25 from THR RWY 07 to 140M east of THR RWY 07

Image

Image

Watch out!

Flight Procedures
RWY 07 and 25 left hand circuit, 1.200 FT QNH

Taxi procedures:
RWY 07 (TKOF):
taxi on the north side of the RWY to the HLDG position of RWY 07

RWY 07 (LDG):
after landing roll out to the second intersection (THR RWY 25), turn left, turn left again, taxi via the TWY to the first intersection, turn left, cross the RWY (check for landing ACFT), taxi on the south side of the RWY to the AD reporting office

RWY 25 (TKOF):
taxi on the north side of the first intersection, turn left, next turn right, taxi via the TWY to the second intersection, turn right, taxi to the HLDG of RWY 25

RWY 25 (LDG):
after landing roll out to the end of the RWY, taxi on the south side of the RWY to the AD reporting office.

Image

Current Metars - Auto refresh

EBOS - Oostende
2018/09/22 23:20 EBOS 222320Z 08008KT 6000 -DZ SCT004 BKN006 10/09 Q1014 TEMPO BKN004


EBAW - Antwerpen
2018/09/22 23:20 EBAW 222320Z AUTO 11006KT 5000 -SHRA BKN003/// OVC004/// 11/10 Q1015


EBBR - Brussel
2018/09/22 23:20 EBBR 222320Z 11005KT 080V140 4500 -RADZ FEW003 BKN005 11/10 Q1015 NOSIG

Source : NOAA.GOV

Current TAFs - Auto refresh

EBOS - Oostende
2018/09/22 18:27 TAF EBOS 221703Z 2218/2324 16007KT 8000 -RA SCT015 BKN030 PROB30 TEMPO 2218/2222 3500 RADZ BKN007 BKN030 BECMG 2310/2312 34018KT TEMPO 2310/2316 33020G33KT 4000 RA

EBAW - Antwerpen
2018/09/22 21:28 TAF EBAW 222000Z 2221/2306 15004KT 8000 -RA SCT015 BKN030 PROB30 TEMPO 2221/2223 4000 RA -RADZ BKN008 BECMG 2223/2301 SCT008 BKN012 TEMPO 2300/2306 4000 -DZ BR BKN007 PROB30 TEMPO 2302/2306 2000 DZ BKN004

EBBR - Brussel
2018/09/22 18:28 TAF EBBR 221703Z 2218/2324 20006KT 8000 -RA SCT015 BKN035 PROB30 TEMPO 2219/2224 4000 RA BKN010 BECMG 2300/2302 SCT007 BKN014 TEMPO 2302/2307 4000 -DZRA BKN007 PROB30 TEMPO 2303/2307 2000 DZ BKN004 BECMG 2312/2314 34010KT TEMPO 2312/2318 2500 RA BKN007 BECMG 2318/2320 28007KT SCT025

Source : NOAA.GOV
Image

Webcam

Direction runway 07 :